Year,Month,Day,Hour,Minute,Value (Times are PST for windspeed in km/hr)
2017,05,22,00,00,0.00
2017,05,22,00,01,0.10
2017,05,22,00,02,0.10
2017,05,22,00,03,0.00
2017,05,22,00,04,0.00
2017,05,22,00,05,0.10
2017,05,22,00,06,0.40
2017,05,22,00,07,0.80
2017,05,22,00,08,0.20
2017,05,22,00,09,0.20
2017,05,22,00,10,0.40
2017,05,22,00,11,0.40
2017,05,22,00,12,0.80
2017,05,22,00,13,0.70
2017,05,22,00,14,0.00
2017,05,22,00,15,0.00
2017,05,22,00,16,0.00
2017,05,22,00,17,0.00
2017,05,22,00,18,0.00
2017,05,22,00,19,0.00
2017,05,22,00,20,0.00
2017,05,22,00,21,0.00
2017,05,22,00,22,0.00
2017,05,22,00,23,0.00
2017,05,22,00,24,0.00
2017,05,22,00,25,0.00
2017,05,22,00,26,0.00
2017,05,22,00,27,0.00
2017,05,22,00,28,0.00
2017,05,22,00,29,0.00
2017,05,22,00,30,0.00
2017,05,22,00,31,0.00
2017,05,22,00,32,0.00
2017,05,22,00,33,0.00
2017,05,22,00,34,0.00
2017,05,22,00,35,0.00
2017,05,22,00,36,0.00
2017,05,22,00,37,0.00
2017,05,22,00,38,0.00
2017,05,22,00,39,0.00
2017,05,22,00,40,0.00
2017,05,22,00,41,0.00
2017,05,22,00,42,0.00
2017,05,22,00,43,0.00
2017,05,22,00,44,0.00
2017,05,22,00,45,0.00
2017,05,22,00,46,0.60
2017,05,22,00,47,1.30
2017,05,22,00,48,2.40
2017,05,22,00,49,2.90
2017,05,22,00,50,2.30
2017,05,22,00,51,1.80
2017,05,22,00,52,1.10
2017,05,22,00,53,0.70
2017,05,22,00,54,0.70
2017,05,22,00,55,0.50
2017,05,22,00,56,0.20
2017,05,22,00,57,1.10
2017,05,22,00,58,0.70
2017,05,22,00,59,2.60
2017,05,22,01,00,2.70
2017,05,22,01,01,2.10
2017,05,22,01,02,2.40
2017,05,22,01,03,2.20
2017,05,22,01,04,1.00
2017,05,22,01,05,0.70
2017,05,22,01,06,2.60
2017,05,22,01,07,2.10
2017,05,22,01,08,1.40
2017,05,22,01,09,1.10
2017,05,22,01,10,0.00
2017,05,22,01,11,0.00
2017,05,22,01,12,0.00
2017,05,22,01,13,0.00
2017,05,22,01,14,0.00
2017,05,22,01,15,0.00
2017,05,22,01,16,0.00
2017,05,22,01,17,0.00
2017,05,22,01,18,0.00
2017,05,22,01,19,0.90
2017,05,22,01,20,1.70
2017,05,22,01,21,2.60
2017,05,22,01,22,1.10
2017,05,22,01,23,2.40
2017,05,22,01,24,1.80
2017,05,22,01,25,1.40
2017,05,22,01,26,2.30
2017,05,22,01,27,3.10
2017,05,22,01,28,3.90
2017,05,22,01,29,3.50
2017,05,22,01,30,3.40
2017,05,22,01,31,3.80
2017,05,22,01,32,2.70
2017,05,22,01,33,1.20
2017,05,22,01,34,1.80
2017,05,22,01,35,1.60
2017,05,22,01,36,1.30
2017,05,22,01,37,1.10
2017,05,22,01,38,2.60
2017,05,22,01,39,1.50
2017,05,22,01,40,0.30
2017,05,22,01,41,0.40
2017,05,22,01,42,1.40
2017,05,22,01,43,0.50
2017,05,22,01,44,1.20
2017,05,22,01,45,0.10
2017,05,22,01,46,0.00
2017,05,22,01,47,0.20
2017,05,22,01,48,0.20
2017,05,22,01,49,0.00
2017,05,22,01,50,0.00
2017,05,22,01,51,0.00
2017,05,22,01,52,0.00
2017,05,22,01,53,0.00
2017,05,22,01,54,0.00
2017,05,22,01,55,0.00
2017,05,22,01,56,0.00
2017,05,22,01,57,0.00
2017,05,22,01,58,0.00
2017,05,22,01,59,0.00
2017,05,22,02,00,0.00
2017,05,22,02,01,0.00
2017,05,22,02,02,0.00
2017,05,22,02,03,0.00
2017,05,22,02,04,0.00
2017,05,22,02,05,0.00
2017,05,22,02,06,0.00
2017,05,22,02,07,0.00
2017,05,22,02,08,0.00
2017,05,22,02,09,0.00
2017,05,22,02,10,0.00
2017,05,22,02,11,0.00
2017,05,22,02,12,0.00
2017,05,22,02,13,0.00
2017,05,22,02,14,0.00
2017,05,22,02,15,0.00
2017,05,22,02,16,0.00
2017,05,22,02,17,0.00
2017,05,22,02,18,0.00
2017,05,22,02,19,0.00
2017,05,22,02,20,0.00
2017,05,22,02,21,0.00
2017,05,22,02,22,0.00
2017,05,22,02,23,0.00
2017,05,22,02,24,0.00
2017,05,22,02,25,0.00
2017,05,22,02,26,0.00
2017,05,22,02,27,0.00
2017,05,22,02,28,0.00
2017,05,22,02,29,0.00
2017,05,22,02,30,0.00
2017,05,22,02,31,0.00
2017,05,22,02,32,0.00
2017,05,22,02,33,0.00
2017,05,22,02,34,0.00
2017,05,22,02,35,0.00
2017,05,22,02,36,0.00
2017,05,22,02,37,0.00
2017,05,22,02,38,0.00
2017,05,22,02,39,0.00
2017,05,22,02,40,0.00
2017,05,22,02,41,0.00
2017,05,22,02,42,0.00
2017,05,22,02,43,0.00
2017,05,22,02,44,0.00
2017,05,22,02,45,0.00
2017,05,22,02,46,0.00
2017,05,22,02,47,0.00
2017,05,22,02,48,0.00
2017,05,22,02,49,0.00
2017,05,22,02,50,0.00
2017,05,22,02,51,0.00
2017,05,22,02,52,0.00
2017,05,22,02,53,0.00
2017,05,22,02,54,0.00
2017,05,22,02,55,0.00
2017,05,22,02,56,0.00
2017,05,22,02,57,0.00
2017,05,22,02,58,0.00
2017,05,22,02,59,0.00
2017,05,22,03,00,0.00
2017,05,22,03,01,0.00
2017,05,22,03,02,0.00
2017,05,22,03,03,0.00
2017,05,22,03,04,0.00
2017,05,22,03,05,0.00
2017,05,22,03,06,0.00
2017,05,22,03,07,0.00
2017,05,22,03,08,0.00
2017,05,22,03,09,0.00
2017,05,22,03,10,0.00
2017,05,22,03,11,0.00
2017,05,22,03,12,0.00
2017,05,22,03,13,0.00
2017,05,22,03,14,0.00
2017,05,22,03,15,0.00
2017,05,22,03,16,0.00
2017,05,22,03,17,0.00
2017,05,22,03,18,0.00
2017,05,22,03,19,0.00
2017,05,22,03,20,0.00
2017,05,22,03,21,0.00
2017,05,22,03,22,0.00
2017,05,22,03,23,0.00
2017,05,22,03,24,0.00
2017,05,22,03,25,0.00
2017,05,22,03,26,0.00
2017,05,22,03,27,0.00
2017,05,22,03,28,0.00
2017,05,22,03,29,0.00
2017,05,22,03,30,0.00
2017,05,22,03,31,0.00
2017,05,22,03,32,0.00
2017,05,22,03,33,0.00
2017,05,22,03,34,0.00
2017,05,22,03,35,0.00
2017,05,22,03,36,0.00
2017,05,22,03,37,0.00
2017,05,22,03,38,0.00
2017,05,22,03,39,0.00
2017,05,22,03,40,0.00
2017,05,22,03,41,0.00
2017,05,22,03,42,0.00
2017,05,22,03,43,0.00
2017,05,22,03,44,0.00
2017,05,22,03,45,2.10
2017,05,22,03,46,0.30
2017,05,22,03,47,0.00
2017,05,22,03,48,0.00
2017,05,22,03,49,0.00
2017,05,22,03,50,0.00
2017,05,22,03,51,0.00
2017,05,22,03,52,0.00
2017,05,22,03,53,0.00
2017,05,22,03,54,0.00
2017,05,22,03,55,0.00
2017,05,22,03,56,0.00
2017,05,22,03,57,0.00
2017,05,22,03,58,1.10
2017,05,22,03,59,1.70
2017,05,22,04,00,1.00
2017,05,22,04,01,1.00
2017,05,22,04,02,0.10
2017,05,22,04,03,0.00
2017,05,22,04,04,0.00
2017,05,22,04,05,0.10
2017,05,22,04,06,0.10
2017,05,22,04,07,0.10
2017,05,22,04,08,0.00
2017,05,22,04,09,0.00
2017,05,22,04,10,0.00
2017,05,22,04,11,0.00
2017,05,22,04,12,0.00
2017,05,22,04,13,0.00
2017,05,22,04,14,0.10
2017,05,22,04,15,0.10
2017,05,22,04,16,0.20
2017,05,22,04,17,0.20
2017,05,22,04,18,0.00
2017,05,22,04,19,0.00
2017,05,22,04,20,0.00
2017,05,22,04,21,0.70
2017,05,22,04,22,1.30
2017,05,22,04,23,1.10
2017,05,22,04,24,1.00
2017,05,22,04,25,0.70
2017,05,22,04,26,1.10
2017,05,22,04,27,1.00
2017,05,22,04,28,1.20
2017,05,22,04,29,0.70
2017,05,22,04,30,0.70
2017,05,22,04,31,0.80
2017,05,22,04,32,0.10
2017,05,22,04,33,0.10
2017,05,22,04,34,0.40
2017,05,22,04,35,1.20
2017,05,22,04,36,0.40
2017,05,22,04,37,0.60
2017,05,22,04,38,0.10
2017,05,22,04,39,0.20
2017,05,22,04,40,0.00
2017,05,22,04,41,0.10
2017,05,22,04,42,0.00
2017,05,22,04,43,0.00
2017,05,22,04,44,0.00
2017,05,22,04,45,0.10
2017,05,22,04,46,0.00
2017,05,22,04,47,0.00
2017,05,22,04,48,0.00
2017,05,22,04,49,0.20
2017,05,22,04,50,0.50
2017,05,22,04,51,0.40
2017,05,22,04,52,0.20
2017,05,22,04,53,0.60
2017,05,22,04,54,0.00
2017,05,22,04,55,0.10
2017,05,22,04,56,0.20
2017,05,22,04,57,0.00
2017,05,22,04,58,0.50
2017,05,22,04,59,1.60
2017,05,22,05,00,0.70
2017,05,22,05,01,1.30
2017,05,22,05,02,1.80
2017,05,22,05,03,1.40
2017,05,22,05,04,1.30
2017,05,22,05,05,1.10
2017,05,22,05,06,1.10
2017,05,22,05,07,0.20
2017,05,22,05,08,0.20
2017,05,22,05,09,0.00
2017,05,22,05,10,0.00
2017,05,22,05,11,0.10
2017,05,22,05,12,0.70
2017,05,22,05,13,1.00
2017,05,22,05,14,1.20
2017,05,22,05,15,1.70
2017,05,22,05,16,2.00
2017,05,22,05,17,2.70
2017,05,22,05,18,1.50
2017,05,22,05,19,0.00
2017,05,22,05,20,1.60
2017,05,22,05,21,2.40
2017,05,22,05,22,1.50
2017,05,22,05,23,2.30
2017,05,22,05,24,3.70
2017,05,22,05,25,4.30
2017,05,22,05,26,3.70
2017,05,22,05,27,4.20
2017,05,22,05,28,4.40
2017,05,22,05,29,3.60
2017,05,22,05,30,4.20
2017,05,22,05,31,4.80
2017,05,22,05,32,5.10
2017,05,22,05,33,5.00
2017,05,22,05,34,3.40
2017,05,22,05,35,2.90
2017,05,22,05,36,0.80
2017,05,22,05,37,0.30
2017,05,22,05,38,0.70
2017,05,22,05,39,0.10
2017,05,22,05,40,1.00
2017,05,22,05,41,0.10
2017,05,22,05,42,0.00
2017,05,22,05,43,0.00
2017,05,22,05,44,0.80
2017,05,22,05,45,0.50
2017,05,22,05,46,0.80
2017,05,22,05,47,0.80
2017,05,22,05,48,1.90
2017,05,22,05,49,1.30
2017,05,22,05,50,1.30
2017,05,22,05,51,0.20
2017,05,22,05,52,1.20
2017,05,22,05,53,1.70
2017,05,22,05,54,2.00
2017,05,22,05,55,2.20
2017,05,22,05,56,0.70
2017,05,22,05,57,0.00
2017,05,22,05,58,0.10
2017,05,22,05,59,0.70
2017,05,22,06,00,0.80
2017,05,22,06,01,1.10
2017,05,22,06,02,0.70
2017,05,22,06,03,1.20
2017,05,22,06,04,2.60
2017,05,22,06,05,1.80
2017,05,22,06,06,0.10
2017,05,22,06,07,0.00
2017,05,22,06,08,0.00
2017,05,22,06,09,0.10
2017,05,22,06,10,0.00
2017,05,22,06,11,0.00
2017,05,22,06,12,0.00
2017,05,22,06,13,0.00
2017,05,22,06,14,0.00
2017,05,22,06,15,0.00
2017,05,22,06,16,0.00
2017,05,22,06,17,0.00
2017,05,22,06,18,0.00
2017,05,22,06,19,0.00
2017,05,22,06,20,0.00
2017,05,22,06,21,0.00
2017,05,22,06,22,0.00
2017,05,22,06,23,0.00
2017,05,22,06,24,0.00
2017,05,22,06,25,0.00
2017,05,22,06,26,0.00
2017,05,22,06,27,0.00
2017,05,22,06,28,0.00
2017,05,22,06,29,0.00
2017,05,22,06,30,0.00
2017,05,22,06,31,0.00
2017,05,22,06,32,0.00
2017,05,22,06,33,0.00
2017,05,22,06,34,0.00
2017,05,22,06,35,0.00
2017,05,22,06,36,0.00
2017,05,22,06,37,0.00
2017,05,22,06,38,0.00
2017,05,22,06,39,0.00
2017,05,22,06,40,0.20
2017,05,22,06,41,1.00
2017,05,22,06,42,0.90
2017,05,22,06,43,0.50
2017,05,22,06,44,0.10
2017,05,22,06,45,0.00
2017,05,22,06,46,0.00
2017,05,22,06,47,0.40
2017,05,22,06,48,1.40
2017,05,22,06,49,0.40
2017,05,22,06,50,0.00
2017,05,22,06,51,0.10
2017,05,22,06,52,0.10
2017,05,22,06,53,0.00
2017,05,22,06,54,0.00
2017,05,22,06,55,0.00
2017,05,22,06,56,0.70
2017,05,22,06,57,0.70
2017,05,22,06,58,0.30
2017,05,22,06,59,0.50
2017,05,22,07,00,0.90
2017,05,22,07,01,0.70
2017,05,22,07,02,2.10
2017,05,22,07,03,0.80
2017,05,22,07,04,0.00
2017,05,22,07,05,0.00
2017,05,22,07,06,0.10
2017,05,22,07,07,0.00
2017,05,22,07,08,1.40
2017,05,22,07,09,0.10
2017,05,22,07,10,0.00
2017,05,22,07,11,0.00
2017,05,22,07,12,0.00
2017,05,22,07,13,0.00
2017,05,22,07,14,0.00
2017,05,22,07,15,0.00
2017,05,22,07,16,0.00
2017,05,22,07,17,0.00
2017,05,22,07,18,0.00
2017,05,22,07,19,0.00
2017,05,22,07,20,0.00
2017,05,22,07,21,0.00
2017,05,22,07,22,0.00
2017,05,22,07,23,0.00
2017,05,22,07,24,0.00
2017,05,22,07,25,0.00
2017,05,22,07,26,0.00
2017,05,22,07,27,0.00
2017,05,22,07,28,0.00
2017,05,22,07,29,0.00
2017,05,22,07,30,0.00
2017,05,22,07,31,0.00
2017,05,22,07,32,0.00
2017,05,22,07,33,0.00
2017,05,22,07,34,0.00
2017,05,22,07,35,0.40
2017,05,22,07,36,0.30
2017,05,22,07,37,0.40
2017,05,22,07,38,0.70
2017,05,22,07,39,1.60
2017,05,22,07,40,0.20
2017,05,22,07,41,0.50
2017,05,22,07,42,2.00
2017,05,22,07,43,2.70
2017,05,22,07,44,1.30
2017,05,22,07,45,0.70
2017,05,22,07,46,2.60
2017,05,22,07,47,1.30
2017,05,22,07,48,1.00
2017,05,22,07,49,0.80
2017,05,22,07,50,1.00
2017,05,22,07,51,2.90
2017,05,22,07,52,1.40
2017,05,22,07,53,1.90
2017,05,22,07,54,4.00
2017,05,22,07,55,2.70
2017,05,22,07,56,1.70
2017,05,22,07,57,0.70
2017,05,22,07,58,1.20
2017,05,22,07,59,1.90
2017,05,22,08,00,1.60
2017,05,22,08,01,2.70
2017,05,22,08,02,1.30
2017,05,22,08,03,0.00
2017,05,22,08,04,0.00
2017,05,22,08,05,0.00
2017,05,22,08,06,0.00
2017,05,22,08,07,0.00
2017,05,22,08,08,0.00
2017,05,22,08,09,0.00
2017,05,22,08,10,0.00
2017,05,22,08,11,0.10
2017,05,22,08,12,0.00
2017,05,22,08,13,0.00
2017,05,22,08,14,0.00
2017,05,22,08,15,0.00
2017,05,22,08,16,0.00
2017,05,22,08,17,0.00
2017,05,22,08,18,0.00
2017,05,22,08,19,0.00
2017,05,22,08,20,0.00
2017,05,22,08,21,0.10
2017,05,22,08,22,0.50
2017,05,22,08,23,1.00
2017,05,22,08,24,0.70
2017,05,22,08,25,1.60
2017,05,22,08,26,3.00
2017,05,22,08,27,2.00
2017,05,22,08,28,1.80
2017,05,22,08,29,1.70
2017,05,22,08,30,0.40
2017,05,22,08,31,0.20
2017,05,22,08,32,0.00
2017,05,22,08,33,0.40
2017,05,22,08,34,0.30
2017,05,22,08,35,0.00
2017,05,22,08,36,0.40
2017,05,22,08,37,0.60
2017,05,22,08,38,0.10
2017,05,22,08,39,0.80
2017,05,22,08,40,1.80
2017,05,22,08,41,2.90
2017,05,22,08,42,2.90
2017,05,22,08,43,3.60
2017,05,22,08,44,0.40
2017,05,22,08,45,1.80
2017,05,22,08,46,6.00
2017,05,22,08,47,6.90
2017,05,22,08,48,8.50
2017,05,22,08,49,7.30
2017,05,22,08,50,10.80
2017,05,22,08,51,7.80
2017,05,22,08,52,5.80
2017,05,22,08,53,8.90
2017,05,22,08,54,6.10
2017,05,22,08,55,9.10
2017,05,22,08,56,8.30
2017,05,22,08,57,5.70
2017,05,22,08,58,4.90
2017,05,22,08,59,5.50
2017,05,22,09,00,4.20
2017,05,22,09,01,5.90
2017,05,22,09,02,6.40
2017,05,22,09,03,10.70
2017,05,22,09,04,7.30
2017,05,22,09,05,5.60
2017,05,22,09,06,8.90
2017,05,22,09,07,8.60
2017,05,22,09,08,11.00
2017,05,22,09,09,9.10
2017,05,22,09,10,7.50
2017,05,22,09,11,9.20
2017,05,22,09,12,14.20
2017,05,22,09,13,10.80
2017,05,22,09,14,15.60
2017,05,22,09,15,13.90
2017,05,22,09,16,14.30
2017,05,22,09,17,10.30
2017,05,22,09,18,5.90
2017,05,22,09,19,14.40
2017,05,22,09,20,16.60
2017,05,22,09,21,14.70
2017,05,22,09,22,14.40
2017,05,22,09,23,16.30
2017,05,22,09,24,15.90
2017,05,22,09,25,17.70
2017,05,22,09,26,14.80
2017,05,22,09,27,15.10
2017,05,22,09,28,16.50
2017,05,22,09,29,13.00
2017,05,22,09,30,15.50
2017,05,22,09,31,9.60
2017,05,22,09,32,6.40
2017,05,22,09,33,6.80
2017,05,22,09,34,5.40
2017,05,22,09,35,9.70
2017,05,22,09,36,9.50
2017,05,22,09,37,11.70
2017,05,22,09,38,9.20
2017,05,22,09,39,6.60
2017,05,22,09,40,6.10
2017,05,22,09,41,7.30
2017,05,22,09,42,7.80
2017,05,22,09,43,10.20
2017,05,22,09,44,11.70
2017,05,22,09,45,8.60
2017,05,22,09,46,12.90
2017,05,22,09,47,9.40
2017,05,22,09,48,14.00
2017,05,22,09,49,15.00
2017,05,22,09,50,8.80
2017,05,22,09,51,8.80
2017,05,22,09,52,10.60
2017,05,22,09,53,13.90
2017,05,22,09,54,11.60
2017,05,22,09,55,12.60
2017,05,22,09,56,13.70
2017,05,22,09,57,11.50
2017,05,22,09,58,11.80
2017,05,22,09,59,8.00
2017,05,22,10,00,6.40
2017,05,22,10,01,12.20
2017,05,22,10,02,11.10
2017,05,22,10,03,6.90
2017,05,22,10,04,13.70
2017,05,22,10,05,10.90
2017,05,22,10,06,13.20
2017,05,22,10,07,13.10
2017,05,22,10,08,12.90
2017,05,22,10,09,13.00
2017,05,22,10,10,8.20
2017,05,22,10,11,9.60
2017,05,22,10,12,10.70
2017,05,22,10,13,7.30
2017,05,22,10,14,11.30
2017,05,22,10,15,11.30
2017,05,22,10,16,12.20
2017,05,22,10,17,11.00
2017,05,22,10,18,15.20
2017,05,22,10,19,14.70
2017,05,22,10,20,10.00
2017,05,22,10,21,11.40
2017,05,22,10,22,9.70
2017,05,22,10,23,12.30
2017,05,22,10,24,8.20
2017,05,22,10,25,11.30
2017,05,22,10,26,13.20
2017,05,22,10,27,9.00
2017,05,22,10,28,16.00
2017,05,22,10,29,16.60
2017,05,22,10,30,15.30
2017,05,22,10,31,13.00
2017,05,22,10,32,11.90
2017,05,22,10,33,10.80
2017,05,22,10,34,8.00
2017,05,22,10,35,9.40
2017,05,22,10,36,9.40
2017,05,22,10,37,6.70
2017,05,22,10,38,5.80
2017,05,22,10,39,6.60
2017,05,22,10,40,6.30
2017,05,22,10,41,5.00
2017,05,22,10,42,7.10
2017,05,22,10,43,8.50
2017,05,22,10,44,10.50
2017,05,22,10,45,11.10
2017,05,22,10,46,5.20
2017,05,22,10,47,6.60
2017,05,22,10,48,6.20
2017,05,22,10,49,2.70
2017,05,22,10,50,8.60
2017,05,22,10,51,7.80
2017,05,22,10,52,6.50
2017,05,22,10,53,9.70
2017,05,22,10,54,11.30
2017,05,22,10,55,11.60
2017,05,22,10,56,11.00
2017,05,22,10,57,10.10
2017,05,22,10,58,5.30
2017,05,22,10,59,1.70
2017,05,22,11,00,7.90
2017,05,22,11,01,10.60
2017,05,22,11,02,7.30
2017,05,22,11,03,7.00
2017,05,22,11,04,10.00
2017,05,22,11,05,6.60
2017,05,22,11,06,3.90
2017,05,22,11,07,5.00
2017,05,22,11,08,3.80
2017,05,22,11,09,6.70
2017,05,22,11,10,7.00
2017,05,22,11,11,10.40
2017,05,22,11,12,7.30
2017,05,22,11,13,2.70
2017,05,22,11,14,2.30
2017,05,22,11,15,1.60
2017,05,22,11,16,3.80
2017,05,22,11,17,2.10
2017,05,22,11,18,1.40
2017,05,22,11,19,5.70
2017,05,22,11,20,1.20
2017,05,22,11,21,1.90
2017,05,22,11,22,0.60
2017,05,22,11,23,4.70
2017,05,22,11,24,6.60
2017,05,22,11,25,6.00
2017,05,22,11,26,2.20
2017,05,22,11,27,2.00
2017,05,22,11,28,1.80
2017,05,22,11,29,2.40
2017,05,22,11,30,0.50
2017,05,22,11,31,1.80
2017,05,22,11,32,3.80
2017,05,22,11,33,2.20
2017,05,22,11,34,5.00
2017,05,22,11,35,6.80
2017,05,22,11,36,8.70
2017,05,22,11,37,6.00
2017,05,22,11,38,5.60
2017,05,22,11,39,3.00
2017,05,22,11,40,3.00
2017,05,22,11,41,1.20
2017,05,22,11,42,5.80
2017,05,22,11,43,7.70
2017,05,22,11,44,7.10
2017,05,22,11,45,6.90
2017,05,22,11,46,8.20
2017,05,22,11,47,5.00
2017,05,22,11,48,4.80
2017,05,22,11,49,6.20
2017,05,22,11,50,5.10
2017,05,22,11,51,3.50
2017,05,22,11,52,2.60
2017,05,22,11,53,4.00
2017,05,22,11,54,5.70
2017,05,22,11,55,8.80
2017,05,22,11,56,10.10
2017,05,22,11,57,8.90
2017,05,22,11,58,8.60
2017,05,22,11,59,8.70
2017,05,22,12,00,7.90
2017,05,22,12,01,8.80
2017,05,22,12,02,7.90
2017,05,22,12,03,6.40
2017,05,22,12,04,6.70
2017,05,22,12,05,5.90
2017,05,22,12,06,5.20
2017,05,22,12,07,2.70
2017,05,22,12,08,1.70
2017,05,22,12,09,4.20
2017,05,22,12,10,6.70
2017,05,22,12,11,8.20
2017,05,22,12,12,8.10
2017,05,22,12,13,8.20
2017,05,22,12,14,10.10
2017,05,22,12,15,10.50
2017,05,22,12,16,10.10
2017,05,22,12,17,9.40
2017,05,22,12,18,8.10
2017,05,22,12,19,4.80
2017,05,22,12,20,2.30
2017,05,22,12,21,5.10
2017,05,22,12,22,5.50
2017,05,22,12,23,5.10
2017,05,22,12,24,4.90
2017,05,22,12,25,4.00
2017,05,22,12,26,3.60
2017,05,22,12,27,3.90
2017,05,22,12,28,1.30
2017,05,22,12,29,4.90
2017,05,22,12,30,2.40
2017,05,22,12,31,1.60
2017,05,22,12,32,1.40
2017,05,22,12,33,0.50
2017,05,22,12,34,0.40
2017,05,22,12,35,6.90
2017,05,22,12,36,12.20
2017,05,22,12,37,11.00
2017,05,22,12,38,8.40
2017,05,22,12,39,11.30
2017,05,22,12,40,13.20
2017,05,22,12,41,10.20
2017,05,22,12,42,11.60
2017,05,22,12,43,10.00
2017,05,22,12,44,10.70
2017,05,22,12,45,11.60
2017,05,22,12,46,10.60
2017,05,22,12,47,10.40
2017,05,22,12,48,8.80
2017,05,22,12,49,8.40
2017,05,22,12,50,7.10
2017,05,22,12,51,11.20
2017,05,22,12,52,11.10
2017,05,22,12,53,14.60
2017,05,22,12,54,14.20
2017,05,22,12,55,16.80
2017,05,22,12,56,13.10
2017,05,22,12,57,13.40
2017,05,22,12,58,12.70
2017,05,22,12,59,9.70
2017,05,22,13,00,10.40
2017,05,22,13,01,8.80
2017,05,22,13,02,8.70
2017,05,22,13,03,9.10
2017,05,22,13,04,14.00
2017,05,22,13,05,12.10
2017,05,22,13,06,13.80
2017,05,22,13,07,10.60
2017,05,22,13,08,12.20
2017,05,22,13,09,9.30
2017,05,22,13,10,8.20
2017,05,22,13,11,11.20
2017,05,22,13,12,8.80
2017,05,22,13,13,8.60
2017,05,22,13,14,13.40
2017,05,22,13,15,10.20
2017,05,22,13,16,9.60
2017,05,22,13,17,9.30
2017,05,22,13,18,12.30
2017,05,22,13,19,9.40
2017,05,22,13,20,6.60
2017,05,22,13,21,9.40
2017,05,22,13,22,9.80
2017,05,22,13,23,9.20
2017,05,22,13,24,7.80
2017,05,22,13,25,8.10
2017,05,22,13,26,10.40
2017,05,22,13,27,11.40
2017,05,22,13,28,10.30
2017,05,22,13,29,10.40
2017,05,22,13,30,8.80
2017,05,22,13,31,4.60
2017,05,22,13,32,10.00
2017,05,22,13,33,9.50
2017,05,22,13,34,10.70
2017,05,22,13,35,10.80
2017,05,22,13,36,10.40
2017,05,22,13,37,12.60
2017,05,22,13,38,15.10
2017,05,22,13,39,13.10
2017,05,22,13,40,12.00
2017,05,22,13,41,9.80
2017,05,22,13,42,12.00
2017,05,22,13,43,6.10
2017,05,22,13,44,11.70
2017,05,22,13,45,12.20
2017,05,22,13,46,13.80
2017,05,22,13,47,13.00
2017,05,22,13,48,11.80
2017,05,22,13,49,14.30
2017,05,22,13,50,14.10
2017,05,22,13,51,8.90
2017,05,22,13,52,10.60
2017,05,22,13,53,9.10
2017,05,22,13,54,13.90
2017,05,22,13,55,10.10
2017,05,22,13,56,11.40
2017,05,22,13,57,9.00
2017,05,22,13,58,6.20
2017,05,22,13,59,15.00
2017,05,22,14,00,15.20
2017,05,22,14,01,15.00
2017,05,22,14,02,13.10
2017,05,22,14,03,14.50
2017,05,22,14,04,13.00
2017,05,22,14,05,12.90
2017,05,22,14,06,16.20
2017,05,22,14,07,12.50
2017,05,22,14,08,14.20
2017,05,22,14,09,9.40
2017,05,22,14,10,11.80
2017,05,22,14,11,7.60
2017,05,22,14,12,15.50
2017,05,22,14,13,14.10
2017,05,22,14,14,10.10
2017,05,22,14,15,7.50
2017,05,22,14,16,5.00
2017,05,22,14,17,8.50
2017,05,22,14,18,5.40
2017,05,22,14,19,10.00
2017,05,22,14,20,7.20
2017,05,22,14,21,6.50
2017,05,22,14,22,5.50
2017,05,22,14,23,10.20
2017,05,22,14,24,9.20
2017,05,22,14,25,9.50
2017,05,22,14,26,6.90
2017,05,22,14,27,9.80
2017,05,22,14,28,11.30
2017,05,22,14,29,10.70
2017,05,22,14,30,9.50
2017,05,22,14,31,9.70
2017,05,22,14,32,9.60
2017,05,22,14,33,6.90
2017,05,22,14,34,9.40
2017,05,22,14,35,9.90
2017,05,22,14,36,12.20
2017,05,22,14,37,10.00
2017,05,22,14,38,12.90
2017,05,22,14,39,12.00
2017,05,22,14,40,9.70
2017,05,22,14,41,12.20
2017,05,22,14,42,14.90
2017,05,22,14,43,13.30
2017,05,22,14,44,12.00
2017,05,22,14,45,8.60
2017,05,22,14,46,5.40
2017,05,22,14,47,10.00
2017,05,22,14,48,7.20
2017,05,22,14,49,13.80
2017,05,22,14,50,18.90
2017,05,22,14,51,16.30
2017,05,22,14,52,12.80
2017,05,22,14,53,13.20
2017,05,22,14,54,13.10
2017,05,22,14,55,14.40
2017,05,22,14,56,13.10
2017,05,22,14,57,11.70
2017,05,22,14,58,12.20
2017,05,22,14,59,11.90
2017,05,22,15,00,13.50
2017,05,22,15,01,13.70
2017,05,22,15,02,12.30
2017,05,22,15,03,13.40
2017,05,22,15,04,11.00
2017,05,22,15,05,11.10
2017,05,22,15,06,9.80
2017,05,22,15,07,9.20
2017,05,22,15,08,7.10
2017,05,22,15,09,6.90
2017,05,22,15,10,7.70
2017,05,22,15,11,8.60
2017,05,22,15,12,7.70
2017,05,22,15,13,7.00
2017,05,22,15,14,8.60
2017,05,22,15,15,7.60
2017,05,22,15,16,6.90
2017,05,22,15,17,8.20
2017,05,22,15,18,8.40
2017,05,22,15,19,9.00
2017,05,22,15,20,9.80
2017,05,22,15,21,8.50
2017,05,22,15,22,7.80
2017,05,22,15,23,8.30
2017,05,22,15,24,6.90
2017,05,22,15,25,7.80
2017,05,22,15,26,8.00
2017,05,22,15,27,7.50
2017,05,22,15,28,5.70
2017,05,22,15,29,8.40
2017,05,22,15,30,11.30
2017,05,22,15,31,10.00
2017,05,22,15,32,9.70
2017,05,22,15,33,12.40
2017,05,22,15,34,12.10
2017,05,22,15,35,11.80
2017,05,22,15,36,12.90
2017,05,22,15,37,12.50
2017,05,22,15,38,11.70
2017,05,22,15,39,11.40
2017,05,22,15,40,9.60
2017,05,22,15,41,9.70
2017,05,22,15,42,11.90
2017,05,22,15,43,13.00
2017,05,22,15,44,11.10
2017,05,22,15,45,12.60
2017,05,22,15,46,12.20
2017,05,22,15,47,12.80
2017,05,22,15,48,11.90
2017,05,22,15,49,12.50
2017,05,22,15,50,10.30
2017,05,22,15,51,11.10
2017,05,22,15,52,11.20
2017,05,22,15,53,9.70
2017,05,22,15,54,7.30
2017,05,22,15,55,10.30
2017,05,22,15,56,10.20
2017,05,22,15,57,11.30
2017,05,22,15,58,12.20
2017,05,22,15,59,9.70
2017,05,22,16,00,8.10
2017,05,22,16,01,10.10
2017,05,22,16,02,7.80
2017,05,22,16,03,10.10
2017,05,22,16,04,8.40
2017,05,22,16,05,8.20
2017,05,22,16,06,9.90
2017,05,22,16,07,10.70
2017,05,22,16,08,9.80
2017,05,22,16,09,9.60
2017,05,22,16,10,7.00
2017,05,22,16,11,8.30
2017,05,22,16,12,7.20
2017,05,22,16,13,9.00
2017,05,22,16,14,11.40
2017,05,22,16,15,11.40
2017,05,22,16,16,10.60
2017,05,22,16,17,9.70
2017,05,22,16,18,10.10
2017,05,22,16,19,9.00
2017,05,22,16,20,8.50
2017,05,22,16,21,6.30
2017,05,22,16,22,8.10
2017,05,22,16,23,8.40
2017,05,22,16,24,8.60
2017,05,22,16,25,7.10
2017,05,22,16,26,8.00
2017,05,22,16,27,8.50
2017,05,22,16,28,6.90
2017,05,22,16,29,10.80
2017,05,22,16,30,10.50
2017,05,22,16,31,8.30
2017,05,22,16,32,8.30
2017,05,22,16,33,8.00
2017,05,22,16,34,7.90
2017,05,22,16,35,8.50
2017,05,22,16,36,9.70
2017,05,22,16,37,10.30
2017,05,22,16,38,9.80
2017,05,22,16,39,9.40
2017,05,22,16,40,9.60
2017,05,22,16,41,9.10
2017,05,22,16,42,9.60
2017,05,22,16,43,9.50
2017,05,22,16,44,10.40
2017,05,22,16,45,9.30
2017,05,22,16,46,9.10
2017,05,22,16,47,10.00
2017,05,22,16,48,10.70
2017,05,22,16,49,9.50
2017,05,22,16,50,11.70
2017,05,22,16,51,11.70
2017,05,22,16,52,12.10
2017,05,22,16,53,13.20
2017,05,22,16,54,11.90
2017,05,22,16,55,12.30
2017,05,22,16,56,13.30
2017,05,22,16,57,13.00
2017,05,22,16,58,12.80
2017,05,22,16,59,12.80
2017,05,22,17,00,12.70
2017,05,22,17,01,11.70
2017,05,22,17,02,12.20
2017,05,22,17,03,12.20
2017,05,22,17,04,11.30
2017,05,22,17,05,9.40
2017,05,22,17,06,11.10
2017,05,22,17,07,11.70
2017,05,22,17,08,12.20
2017,05,22,17,09,12.00
2017,05,22,17,10,11.10
2017,05,22,17,11,10.90
2017,05,22,17,12,10.40
2017,05,22,17,13,10.10
2017,05,22,17,14,9.50
2017,05,22,17,15,9.10
2017,05,22,17,16,7.60
2017,05,22,17,17,8.30
2017,05,22,17,18,11.10
2017,05,22,17,19,9.50
2017,05,22,17,20,9.70
2017,05,22,17,21,11.40
2017,05,22,17,22,10.30
2017,05,22,17,23,7.90
2017,05,22,17,24,8.30
2017,05,22,17,25,9.10
2017,05,22,17,26,8.30
2017,05,22,17,27,9.70
2017,05,22,17,28,9.40
2017,05,22,17,29,8.70
2017,05,22,17,30,6.00
2017,05,22,17,31,8.40
2017,05,22,17,32,10.00
2017,05,22,17,33,8.20
2017,05,22,17,34,7.70
2017,05,22,17,35,7.00
2017,05,22,17,36,7.40
2017,05,22,17,37,6.70
2017,05,22,17,38,6.40
2017,05,22,17,39,7.00
2017,05,22,17,40,8.40
2017,05,22,17,41,8.40
2017,05,22,17,42,8.90
2017,05,22,17,43,9.20
2017,05,22,17,44,9.40
2017,05,22,17,45,9.30
2017,05,22,17,46,8.50
2017,05,22,17,47,8.50
2017,05,22,17,48,8.70
2017,05,22,17,49,9.40
2017,05,22,17,50,10.70
2017,05,22,17,51,8.40
2017,05,22,17,52,9.50
2017,05,22,17,53,9.80
2017,05,22,17,54,8.50
2017,05,22,17,55,6.20